COSMOS 1691 DEB, 20284

Orbit data source: Space-Track

COSMOS 1691 DEB, 20284 is space debris in LEO originally from a launch on Wed, 09 Oct 1985 UTC launched from the Plesetsk Missile And Space Complex (PKMTR). Debris objects in space refer to the collection of defunct objects orbiting the Earth. Examples of debris include non-operational satellites, rocket bodies, and fragments generated from explosions, collisions, or faulty payload assembly.

Loading next visibility...
Identifier
20284, 1985-094X
Orbit
LEO
Country
Flag of CISCIS
Related business
Manufacturer
Unknown
Mission
Spacecraft
Bus & Motor
Unknown
Mass
Unknown
Launch date (UTC)
1985-10-09 (40 years ago)
Launch vehicle
Unknown
Launch site
Plesetsk Missile And Space Complex (PKMTR)
Object type
Payload
Rocket body
Debris
Shape & HBR
Unknown shape, 0.1 m
Radar Cross Section
Small (<0.1 m²)

Expand to show TLE details & history
Last TLE update: 2 days ago

TLE from 2 days ago
0 COSMOS 1691 DEB
1 20284U 85094X   26035.39075071  .00000237  00000-0  17201-2 0  9995
2 20284  83.1927 196.5094 0230294 143.8746 245.5043 12.31590297549263
Epoch: 2026-02-04T09:22Z
TLE epoch observation values (Epoch: 2026-02-04T09:22:40.861Z)
Latitude
26.83318°
Longitude
-75.27358°
Altitude
1,624.641 km
Speed
7.026 km/s
True Right ascension
13h 19m 49s
True Declination
26° 42' 36"
Sunlit
Object was in daylight at epoch
Visualization orbit readout
Latitude
Unknown
Longitude
Unknown
Altitude
Unknown
Speed
Unknown
Apparent Right ascension
Unknown
Apparent Declination
Unknown
Sunlit
N/A
Visualization observer readout
Local Sidereal Time
15:24:22
Azimuth
Unknown
Elevation
Unknown
Doppler factor
Unknown
Orbital elements
Apogee altitude
1,722.141 km
Perigee altitude
1,357.451 km
Semi-major axis
7,917.933 km
Eccentricity
0.02303
Inclination
83.1927°
RAAN
196.5094°
Arg. of periapsis
143.8746°
True anomaly
243.13187°
Mean anomaly
245.5043°
Eccentric anomaly
244.31519°
Mean motion
3.08053 °/min
Orbital period
116.86 mins
BSTAR
0.0017201
Loading maneuver chart data...
Computing Atmospheric mass density...
Loading historical data...
Loading historical data...
Loading historical data...
Loading historical data...
Loading historical data...
Loading historical data...
Loading historical data...

Documentation

Showing up to 5 results
|